Terminal Aerodrome Forecast
Issued by NWS

Home | Current Version | Previous Version | Text Only | Print | Product List | Glossary On
Versions: 1 2 3 4 5 6 7 8 9 10 11 12 13 14 15 16 17 18 19 20 21 22 23
000
FTAK31 PANC 281135
TAFAVD
TAF
PAVD 281135Z 2812/0112 VRB03KT P6SM BKN120
     FM281500 VRB03KT P6SM VCSH SCT025 BKN050
     FM282000 VRB03KT 6SM -SHSN BKN015 OVC045
     FM010600 VRB03KT P6SM SCT050 BKN120
     FM011000 VRB03KT P6SM SCT120
      AMD LTD TO CLD VIS AND WIND=

USA.gov is the U.S. government's official web portal to all federal, state and local government web resources and services.